Location: Wilhelmshaven
(53.5279°N, 8.1063°E)
Time: 01:40:21
(UTC+01:00)

ISS - Visible Passes

Search period start: 08 December 2025 00:00
Search period end: 18 December 2025 00:00
Orbit: 416 x 421 km, 51.6° (Epoch: 07 December)

Date Brightness Start Highest point End Pass type
(mag) Time Alt. Az. Time Alt. Az. Time Alt. Az.
13 Dec -0.7 07:15:18 10° S 07:17:26 16° SE 07:19:35 10° ESE visible
14 Dec -0.5 06:28:37 10° SSE 06:29:42 11° SE 06:30:47 10° ESE visible
15 Dec -1.7 07:14:57 10° SW 07:17:54 28° SSE 07:20:51 10° E visible
16 Dec -1.3 06:27:23 10° SSW 06:30:01 21° SSE 06:32:40 10° E visible
17 Dec -1.1 05:41:19 14° SSE 05:42:10 16° SE 05:44:16 10° ESE visible
17 Dec -2.7 07:15:08 10° SW 07:18:23 44° SSE 07:21:37 10° E visible
